Location: Sevilla
(37.3933°N, 5.9839°W)
Time: 05:13:39
(UTC+02:00)

Tiros 1 despin weight - Pass Details

Date: 04 July 2024
Orbit: 576 x 620 km, 48.2° (Epoch: 22 July)

Event Time Altitude Azimuth Distance (km) Brightness Sun altitude
Rises 13:35:56 0° 303° (WNW) 2,882 ? 71.5°
Reaches altitude 10° 13:38:38 10° 317° (NW) 1,981 ? 71.9°
Maximum altitude 13:42:19 23° 11° (NNE) 1,309 ? 72.4°
Drops below altitude 10° 13:46:00 10° 65° (ENE) 1,986 ? 72.8°
Sets 13:48:42 0° 80° (E) 2,890 ? 73.1°
